Flag for Germany Weather past 2 weeks in Balingen, Baden-Württemberg, Germany

Now
68 °F

Clear.


Feels Like: 68 °F
Forecast: 56 / 87 °F
Wind: 2 mph from North

Location: Stuttgart-Echterdingen

Current Time: Aug 28, 2015 at 7:27:48 AM

Latest Report: Aug 28, 2015 at 6:20 AM


Visibility: 10 mi

Pressure: 30.01 "Hg (28.24 "Hg at 520m altitude)

Humidity: 83%

Dew point: 63 °F

Location of BalingenLocation

Historic Weather in Balingen — Graph

°F

Balingen temperature yesterday

Maximum temperature yesterday: 88 °F (at 4:20 PM)
Minimum temperature yesterday: 55 °F (at 6:20 AM)
Average temperature yesterday: 74 °F

Past Weeks' High & Low Weather Summary

 TemperatureHumidityPressure
High95 °F (Aug 13, 3:20 PM)100% (Aug 15, 12:20 AM)30.27 "Hg (Aug 15, 12:20 AM)
Low48 °F (Aug 18, 5:20 AM)20% (Aug 13, 3:20 PM)29.71 "Hg (Aug 24, 1:50 PM)
Average65 °F70%29.99 "Hg
* Reported Aug 13 5:20 AM — Aug 28 5:50 AM, Balingen, Weather by CustomWeather, © 2015

Note: Actual official high and low records may vary slightly from our data, if they occured in-between our weather recording intervals... More about our weather records

Advertising

Balingen weather history for previous 24 hours

 ConditionsComfort  
Time TempWeatherWind HumidityBarometerVisibility
5:50 AM
Fri, Aug 28
68 °FClear.2 mph83%30.01 "Hg10 mi
5:20 AM68 °FLight rain. Clear.2 mph83%30.01 "HgN/A
4:50 AM68 °FClear.2 mph83%30.01 "Hg10 mi
4:20 AM68 °FClear.2 mph83%30.01 "Hg10 mi
3:50 AM70 °FPassing clouds.3 mph78%30.01 "HgN/A
3:20 AM70 °FPassing clouds.5 mph78%29.98 "HgN/A
2:50 AM70 °FClear.9 mph73%29.98 "Hg10 mi
2:20 AM72 °FPassing clouds.13 mph69%29.95 "HgN/A
1:50 AM73 °FClear.15 mph61%29.95 "Hg10 mi
1:20 AM73 °FPassing clouds.8 mph53%29.92 "HgN/A
12:50 AM75 °FPassing clouds.6 mph47%29.89 "HgN/A
12:20 AM75 °FPassing clouds.5 mph47%29.89 "HgN/A
11:50 PM
Thu, Aug 27
77 °FClear.1 mph42%29.89 "Hg10 mi
11:20 PM75 °FClear.2 mph47%29.89 "Hg10 mi
10:50 PM75 °FClear.2 mph47%29.89 "Hg10 mi
10:20 PM75 °FPassing clouds.5 mph47%29.89 "HgN/A
9:50 PM73 °FPassing clouds.5 mph53%29.89 "HgN/A
9:20 PM77 °FPassing clouds.3 mph44%29.86 "HgN/A
8:50 PM79 °FPassing clouds.3 mph42%29.86 "HgN/A
8:20 PM81 °FPassing clouds.5 mph37%29.86 "HgN/A
7:50 PM82 °FPassing clouds.7 mph35%29.86 "HgN/A
7:20 PM84 °FPassing clouds.6 mph33%29.86 "HgN/A
6:50 PM86 °FPassing clouds.6 mph29%29.86 "HgN/A
6:20 PM88 °FPassing clouds.7 mph27%29.86 "HgN/A
5:50 PM88 °FPassing clouds.7 mph27%29.86 "HgN/A
5:20 PM88 °FPassing clouds.8 mph27%29.86 "HgN/A
4:50 PM88 °FPassing clouds.10 mph25%29.86 "HgN/A
4:20 PM88 °FPassing clouds.10 mph25%29.86 "HgN/A
3:50 PM86 °FPassing clouds.10 mph27%29.89 "HgN/A
3:20 PM86 °FPassing clouds.9 mph27%29.89 "HgN/A
2:50 PM86 °FPassing clouds.10 mph27%29.89 "HgN/A
2:20 PM86 °FPassing clouds.8 mph25%29.89 "HgN/A
1:50 PM86 °FPassing clouds.12 mph29%29.92 "HgN/A
1:20 PM84 °FPassing clouds.9 mph35%29.92 "HgN/A
12:50 PM82 °FPassing clouds.7 mph35%29.92 "HgN/A
12:20 PM82 °FPassing clouds.8 mph35%29.95 "HgN/A
11:50 AM81 °FPassing clouds.8 mph37%29.95 "HgN/A
11:20 AM79 °FPassing clouds.6 mph42%29.95 "HgN/A
10:50 AM79 °FPassing clouds.6 mph42%29.95 "HgN/A
10:20 AM75 °FSunny.5 mph50%29.98 "Hg10 mi
9:50 AM73 °FPassing clouds.3 mph53%29.95 "HgN/A
9:20 AM72 °FSunny.2 mph57%29.98 "Hg10 mi
8:50 AM64 °FSunny.2 mph83%29.98 "Hg10 mi
8:20 AM61 °FSunny.2 mph83%29.98 "Hg10 mi
7:50 AM61 °FPassing clouds.5 mph83%29.98 "HgN/A
7:20 AM57 °FClear.2 mph88%29.98 "Hg10 mi
Weather by CustomWeather, © 2015

See weather overviewHow to use our weather pages